TimeEDT,TemperatureF,Dew PointF,Humidity,Sea Level PressureIn,VisibilityMPH,Wind Direction,Wind SpeedMPH,Gust SpeedMPH,PrecipitationIn,Events,Conditions,WindDirDegrees,DateUTC
12:53 AM,39.9,39.0,97,30.22,6.0,Calm,Calm,-,N/A,,Overcast,0,2012-10-08 04:53:00
1:53 AM,39.0,37.0,93,30.22,8.0,Calm,Calm,-,N/A,,Clear,0,2012-10-08 05:53:00
2:30 AM,37.4,35.6,93,30.20,1.8,Calm,Calm,-,N/A,,Clear,0,2012-10-08 06:30:00
2:39 AM,37.4,35.6,93,30.21,1.8,Calm,Calm,-,N/A,,Partly Cloudy,0,2012-10-08 06:39:00
2:43 AM,37.4,35.6,93,30.21,3.0,Calm,Calm,-,N/A,,Clear,0,2012-10-08 06:43:00
2:53 AM,37.0,35.1,93,30.22,3.0,Calm,Calm,-,N/A,,Clear,0,2012-10-08 06:53:00
3:53 AM,36.0,35.1,97,30.24,3.0,Calm,Calm,-,N/A,,Clear,0,2012-10-08 07:53:00
4:00 AM,37.4,35.6,93,30.22,3.0,Calm,Calm,-,N/A,,Partly Cloudy,0,2012-10-08 08:00:00
4:03 AM,37.4,35.6,93,30.21,1.8,Calm,Calm,-,N/A,,Partly Cloudy,0,2012-10-08 08:03:00
4:14 AM,37.4,35.6,93,30.21,1.2,Calm,Calm,-,N/A,,Mostly Cloudy,0,2012-10-08 08:14:00
4:25 AM,37.4,37.4,100,30.22,2.0,Calm,Calm,-,N/A,,Scattered Clouds,0,2012-10-08 08:25:00
4:33 AM,37.4,37.4,100,30.22,4.0,Calm,Calm,-,N/A,,Scattered Clouds,0,2012-10-08 08:33:00
4:51 AM,37.4,37.4,100,30.22,1.8,Calm,Calm,-,N/A,,Partly Cloudy,0,2012-10-08 08:51:00
4:53 AM,37.0,37.0,100,30.25,1.0,Calm,Calm,-,N/A,,Mist,0,2012-10-08 08:53:00
5:01 AM,37.4,37.4,100,30.23,0.5,Calm,Calm,-,N/A,Fog,Fog,0,2012-10-08 09:01:00
5:12 AM,37.4,37.4,100,30.23,2.0,Calm,Calm,-,N/A,,Mostly Cloudy,0,2012-10-08 09:12:00
5:22 AM,37.4,37.4,100,30.23,4.0,Calm,Calm,-,N/A,,Mostly Cloudy,0,2012-10-08 09:22:00
5:31 AM,37.4,37.4,100,30.24,6.0,South,3.5,-,N/A,,Partly Cloudy,190,2012-10-08 09:31:00
5:53 AM,37.9,37.0,97,30.26,8.0,Calm,Calm,-,N/A,,Clear,0,2012-10-08 09:53:00
6:53 AM,37.9,37.0,97,30.27,6.0,Calm,Calm,-,N/A,,Clear,0,2012-10-08 10:53:00
7:53 AM,39.0,37.9,96,30.27,8.0,Calm,Calm,-,N/A,,Clear,0,2012-10-08 11:53:00
8:53 AM,41.0,39.0,93,30.28,10.0,Calm,Calm,-,N/A,,Clear,0,2012-10-08 12:53:00
9:53 AM,42.1,39.9,92,30.28,10.0,Calm,Calm,-,N/A,,Clear,0,2012-10-08 13:53:00
10:53 AM,45.0,42.1,90,30.27,10.0,Calm,Calm,-,N/A,,Clear,0,2012-10-08 14:53:00
11:04 AM,44.6,41.0,87,30.26,10.0,Calm,Calm,-,N/A,,Partly Cloudy,0,2012-10-08 15:04:00
11:53 AM,46.0,39.0,76,30.28,10.0,SSE,3.5,-,N/A,,Mostly Cloudy,150,2012-10-08 15:53:00
12:53 PM,46.9,39.9,77,30.28,10.0,Calm,Calm,-,N/A,,Mostly Cloudy,0,2012-10-08 16:53:00
1:53 PM,46.9,37.9,71,30.26,10.0,Calm,Calm,-,N/A,,Overcast,0,2012-10-08 17:53:00
2:53 PM,45.0,39.0,80,30.26,8.0,South,6.9,-,0.01,Rain,Light Rain,180,2012-10-08 18:53:00
3:53 PM,45.0,41.0,86,30.26,10.0,SSW,4.6,-,0.00,Rain,Light Rain,210,2012-10-08 19:53:00
4:09 PM,44.6,41.0,87,30.24,10.0,Calm,Calm,-,N/A,,Overcast,0,2012-10-08 20:09:00
4:50 PM,44.6,41.0,87,30.22,10.0,SSW,4.6,-,N/A,,Overcast,210,2012-10-08 20:50:00
4:53 PM,45.0,41.0,86,30.25,10.0,SSW,3.5,-,N/A,,Overcast,210,2012-10-08 20:53:00
5:06 PM,44.6,41.0,87,30.22,10.0,Calm,Calm,-,N/A,,Overcast,0,2012-10-08 21:06:00
5:32 PM,44.6,41.0,87,30.22,10.0,Calm,Calm,-,N/A,,Overcast,0,2012-10-08 21:32:00
5:53 PM,45.0,41.0,86,30.24,10.0,Calm,Calm,-,N/A,,Overcast,0,2012-10-08 21:53:00
6:53 PM,45.0,39.9,82,30.23,10.0,Calm,Calm,-,N/A,,Overcast,0,2012-10-08 22:53:00
7:53 PM,44.1,41.0,89,30.22,10.0,Calm,Calm,-,N/A,,Overcast,0,2012-10-08 23:53:00
8:53 PM,44.1,41.0,89,30.22,10.0,Calm,Calm,-,N/A,,Overcast,0,2012-10-09 00:53:00
9:53 PM,44.1,41.0,89,30.23,10.0,Calm,Calm,-,N/A,,Overcast,0,2012-10-09 01:53:00
10:53 PM,44.1,41.0,89,30.22,10.0,Calm,Calm,-,N/A,,Overcast,0,2012-10-09 02:53:00
11:53 PM,44.1,39.9,85,30.21,10.0,Calm,Calm,-,N/A,,Overcast,0,2012-10-09 03:53:00